COSMOS 1275 DEB

Satellite information

Favourite Embed

Satellite Type and Status

DEBRISIN ORBIT

Key statistics

Satellite COSMOS 1275 DEB at a glance.

Uptime

16168

Days in orbit

Revolutions

≈ 13.7

Per day

Orbit

LEO

Low Earth Orbit

Inclination

83.0

Latest

Satellite identification and parameters

Extended collection of information and parameters for COSMOS 1275 DEB.

Object identification

Identified? True

Debris? True

Object name: COSMOS 1275 DEB

International designator: 1981-053TD

Object number (NORAD): 42189

Object ID (CCSDS): 42189

Country: COMMONWEALTH OF INDEPENDENT STATES (CIS)

Current information (Y/N): Y

RCS size: SMALL

Orbital parameters

Period: 104.992 minutes

Inclination: 83.0202 deg

SMA: 7372.214 km

Apoapsis: 1083.914 km

Periapsis: 904.245 km

RAAN: 140.2436 deg

Eccentricy: 0.01218552

Argument of periapsis: 115.1096 deg

Mean anomaly: 246.2761 deg

Mean motion: 13.71531647 rev/day

Mean motion (dot): 0.00001446 rev/day2

B* drag term: 0.0015058954 1/REarth

Two-line elements (TLE)

Creation date: Sept. 5, 2025, 7:38 p.m.

Reference frame: TEME

Reference center: EARTH

Epoch: Sept. 5, 2025, 9:46 a.m. UTC

TLE line 0: 0 COSMOS 1275 DEB

TLE line 1: 1 42189U 81053TD 25248.40698994 .00001446 00000-0 15059-2 0 9998

TLE line 2: 2 42189 83.0202 140.2436 0121855 115.1096 246.2761 13.71531647569934

Live tracking on map

Real-time ground track for satellite COSMOS 1275 DEB.

In-orbit conjunctions

A list of the most updated potential collisions computed for object COSMOS 1275 DEB.

Target Orbit TCA Probability of collision Miss distance Type
KOMPASS SSO 2025-01-28 11:23:50 0.0002408636 193.0 (m) PAYLOAD

Associated space launch

Navigation satellite providing location information for the Tsiklon-B navigation system

COSMOS 1275 DEB was lifted into orbit during the mission ‘Kosmos-3M | Parus 27’, on board a Kosmos-3M space rocket.

The launch took place on June 4, 1981, 3:41 p.m. from 132/2.

For more information about the launch, click the button.

Launch to space Kosmos-3M | Parus 27
Kosmos-3M | Parus 27

Agency: N/A

Status: Launch Successful

Launch date: June 4, 1981, 3:41 p.m. UTC

Rocket: Kosmos-3M

Launch pad: 132/2

Location: Plesetsk Cosmodrome, Russian Federation

...

Latest news about this satellite

There are no fresh news available about this satellite. Check back as we update our databases every day.


Newsletter sign-up

Weekly statistics, charts and insights to help you stay on top of the space industry.